Simultaneous Nadir Overpasses (SNOs) Predictions

Prediction of SNOs between GOES-14 and AQUA Satellite Orbit:

Table of predicted SNOs for the next 14.0 days since TLE Epoch: 6/25/2022
Index Date Time (GOES-14) GOES-14 Lat,Lon AQUA Lat,Lon Distance(km) Time Diff (sec)
1 06/25/2022 20:37:13 0.15,-104.82 0.26,-104.31 58.45 80
2 06/27/2022 20:24:38 0.15,-104.83 0.89,-101.24 407.32 80
3 06/28/2022 08:43:07 -0.18,-104.54 0.23,-106.36 207.52 80
4 06/30/2022 08:33:13 -0.18,-104.55 -0.48,-103.31 141.44 80
5 06/30/2022 20:51:51 0.21,-104.84 -0.57,-108.49 414.99 80
6 07/02/2022 08:20:37 -0.18,-104.56 -1.07,-100.24 490.63 80
7 07/02/2022 20:39:16 0.21,-104.85 0.09,-105.43 65.68 80
8 07/04/2022 20:29:21 0.20,-104.86 0.71,-102.36 283.91 80
9 07/05/2022 08:47:49 -0.23,-104.58 0.40,-107.48 330.56 80
10 07/07/2022 08:37:54 -0.23,-104.59 -0.29,-104.43 19.22 80
